LiveATC.Net - Listen to live air traffic control over the Internet!

Find LiveATC Audio Streams


Airport/ARTCC Code

Frequency Search
(e.g., 124.400, 128.75)
Site-wide search
 


Browse LiveATC Feeds
Top 50 LiveATC Feeds
Bad Weather Areas

LiveATC FAQ
Offer a LiveATC Feed
Contact LiveATC.net
Press Inquiries

LiveATC on iPhone
LiveATC on Android

Windows Phone
Windows 8/10

LiveATC Mobile
(Mobile browser)

ATC Audio Archives
Interesting Recordings

LiveATC Forums

Home Page
About LiveATC.net
Make a Donation
Terms of Use
Privacy Policy

Canadian Air Freqs

AIRMETs/SIGMETs

FAA Airport Status
Nat'l Airspace Status
Arrival Demand Charts


Server Software By:
Icecast.org
Liquidsoap

Select an area of interest:
U.S. Feeds: Class B Airports | Class C Airports | Class D/Other Airports | ARTCC (Centers)
International Feeds: Canada | Europe | Oceania | Asia | South America | North/Central America | Africa
Misc Feeds: HF Feeds
Search by ICAO/IATA airport code:   (e.g., kbos, kjfk, lax, eham, etc.)


Currently Available Live Feeds: 2272
Status Updated: Thu Dec 13 2018 21:33:01 UTC


NOTICE

Unauthorized use prohibited. See LiveATC.net Terms of Service

Asia Airport Feeds

 

LTAF Tower/Approach
Adana, Turkey

Feed Status: DOWN
Offline since: 2018-12-13 19:42:04 UTC

LTAF 132120Z 06004KT 9999 FEW035 07/04 Q1025 NOSIG

Adana Approach: 118.300
Adana Tower: 131.100
Adana Tower: 121.100

HF CWP 8903 (Archives)
Manila, Philippines

Feed Status: UP
Listen in your browser - HTML5 player(in browser, HTML5)
Listen right in your browser(in browser, requires Flash)
Click here to listen with your own player(launches your MP3 player)


Listeners: 0 out of 1303 total

HF CWP: 8.903

Receiver location: Manila, Philippines

HF CWP-1 11384 (Archives)
Manila, Philippines

Feed Status: UP
Listen in your browser - HTML5 player(in browser, HTML5)
Listen right in your browser(in browser, requires Flash)
Click here to listen with your own player(launches your MP3 player)


Listeners: 0 out of 1303 total

HF CWP-1 Toyko/Manila/San Francisco: 11.384

Receiver location: Manila, Philippines

HF RDARA Bali 8918 (Archives)
Manila, Philippines

Feed Status: UP
Listen in your browser - HTML5 player(in browser, HTML5)
Listen right in your browser(in browser, requires Flash)
Click here to listen with your own player(launches your MP3 player)


Listeners: 0 out of 1303 total

HF RDARA Bali: 8.918

Receiver location: Manila, Philippines

HF SEA 11300 (Archives)
Manila, Philippines

Feed Status: UP
Listen in your browser - HTML5 player(in browser, HTML5)
Listen right in your browser(in browser, requires Flash)
Click here to listen with your own player(launches your MP3 player)


Listeners: 0 out of 1303 total

HF SEA: 11.300

Receiver location: Manila, Philippines

HF SEA 5517 (Archives)
Manila, Philippines

Feed Status: UP
Listen in your browser - HTML5 player(in browser, HTML5)
Listen right in your browser(in browser, requires Flash)
Click here to listen with your own player(launches your MP3 player)


Listeners: 0 out of 1303 total

HF SEA: 5.517

Receiver location: Manila, Philippines

HF SEA 6532 (Archives)
Manila, Philippines

Feed Status: UP
Listen in your browser - HTML5 player(in browser, HTML5)
Listen right in your browser(in browser, requires Flash)
Click here to listen with your own player(launches your MP3 player)


Listeners: 0 out of 1303 total

HF SEA: 6.532

Receiver location: Manila, Philippines

HF SEA 8882 (Archives)
Manila, Philippines

Feed Status: UP
Listen in your browser - HTML5 player(in browser, HTML5)
Listen right in your browser(in browser, requires Flash)
Click here to listen with your own player(launches your MP3 player)


Listeners: 0 out of 1303 total

HF SEA: 8.882

Receiver location: Manila, Philippines

HF SEA 8951 (Archives)
Manila, Philippines

Feed Status: UP
Listen in your browser - HTML5 player(in browser, HTML5)
Listen right in your browser(in browser, requires Flash)
Click here to listen with your own player(launches your MP3 player)


Listeners: 0 out of 1303 total

HF SEA: 8.951

Receiver location: Manila, Philippines

HF SEA-2 6556 (Archives)
Manila, Philippines

Feed Status: UP
Listen in your browser - HTML5 player(in browser, HTML5)
Listen right in your browser(in browser, requires Flash)
Click here to listen with your own player(launches your MP3 player)


Listeners: 0 out of 1303 total

HF CEP2: 11.282
HF SEA-2 Singapore: 6.556

Receiver location: Manila, Philippines

HF SEA-2 8942 (Archives)
Manila, Philippines

Feed Status: UP
Listen in your browser - HTML5 player(in browser, HTML5)
Listen right in your browser(in browser, requires Flash)
Click here to listen with your own player(launches your MP3 player)


Listeners: 1 out of 1303 total

HF SEA-2: 8.942

Receiver location: Manila, Philippines

HF SEA-3 11396 (Archives)
Manila, Philippines

Feed Status: UP
Listen in your browser - HTML5 player(in browser, HTML5)
Listen right in your browser(in browser, requires Flash)
Click here to listen with your own player(launches your MP3 player)


Listeners: 0 out of 1303 total

HF SEA-3 Brisbane/Ujung Pandang: 11.396

Receiver location: Manila, Philippines

OKBK Gnd/Twr/App/Radar (Archives)
Kuwait City, Kuwait

Feed Status: UP
Listen in your browser - HTML5 player(in browser, HTML5)
Listen right in your browser(in browser, requires Flash)
Click here to listen with your own player(launches your MP3 player)

OKBK 132100Z 00000KT CAVOK 14/12 Q1022 NOSIG


Listeners: 4 out of 1303 total

Kuwait Approach: 121.300
Kuwait Approach: 124.800
Kuwait Ground: 121.700
Kuwait Radar (Center): 125.300
Kuwait Tower: 118.300

OPKC Gnd/Twr/Radar (Archives)
Karachi, Pakistan

Feed Status: UP
Listen in your browser - HTML5 player(in browser, HTML5)
Listen right in your browser(in browser, requires Flash)
Click here to listen with your own player(launches your MP3 player)

OPKC 132055Z 34006KT 6000 NSC 16/04 Q1022 NOSIG


Listeners: 2 out of 1303 total

Karachi Ground: 121.600
Karachi Radar: 125.500
Karachi Tower: 118.300

OPLA ATIS
Lahore, Pakistan

Feed Status: DOWN
Offline since: 2018-12-11 12:43:03 UTC

OPLA 132055Z 00000KT 4000 FU NSC 09/07 Q1023 NOSIG RMK QFE997 RMK A30.17

Lahore ATIS: 126.300

OPLA/OPLH Gnd/Twr/App
Lahore, Pakistan

Feed Status: DOWN
Offline since: 2018-12-11 12:43:03 UTC

OPLA 132055Z 00000KT 4000 FU NSC 09/07 Q1023 NOSIG RMK QFE997 RMK A30.17

Lahore Approach: 121.300
Lahore Approach: 125.300
Lahore Control: 127.500
Lahore Ground: 118.400
Lahore Tower: 118.100
Lahore Tower: 121.800
Walton (OPLH) Tower: 119.400

OPLA/OPLH Gnd/Twr/App
Lahore, Pakistan

Feed Status: DOWN
Offline since: 2018-12-11 12:43:03 UTC

OPLA 132055Z 00000KT 4000 FU NSC 09/07 Q1023 NOSIG RMK QFE997 RMK A30.17

Lahore Approach: 121.300
Lahore Approach: 125.300
Lahore Control: 127.500
Lahore Ground: 118.400
Lahore Tower: 118.100
Lahore Tower: 121.800
Walton (OPLH) Tower: 119.400

OPPS Tower/App
Peshawar, Pakistan

Feed Status: DOWN
Offline since: 2018-07-12 21:43:02 UTC

OPPS 132100Z 00000KT 4000 HZ SKC 07/04 Q1024

Peshawar Approach: 125.600
Peshawar Tower: 121.300
Peshawar Tower: 122.900

OPRN Approach
Islamabad, Pakistan

Feed Status: DOWN
Offline since: 2018-10-20 12:11:02 UTC

OPRN 132000Z 00000KT 2000 BR NSC 09/06 Q1024 BECMG 1500 RMK A3025

Islamabad Approach: 124.900

OPRN ATIS
Islamabad, Pakistan

Feed Status: DOWN
Offline since: 2018-10-20 12:11:02 UTC

OPRN 132000Z 00000KT 2000 BR NSC 09/06 Q1024 BECMG 1500 RMK A3025

Islamabad ATIS: 129.600

OPRN Tower
Islamabad, Pakistan

Feed Status: DOWN
Offline since: 2018-10-20 12:11:02 UTC

OPRN 132000Z 00000KT 2000 BR NSC 09/06 Q1024 BECMG 1500 RMK A3025

Islamabad Tower: 123.700

OPRN Tower/App
Islamabad, Pakistan

Feed Status: DOWN
Offline since: 2018-10-20 12:11:02 UTC

OPRN 132000Z 00000KT 2000 BR NSC 09/06 Q1024 BECMG 1500 RMK A3025

Islamabad Approach: 124.900
Islamabad Tower: 123.700

RCTP Approach
Taipei, Taiwan

Feed Status: DOWN
Offline since: 2018-12-13 21:11:03 UTC

RCTP 132119Z 06021KT 7000 -RA FEW006 BKN008 BKN015 17/16 Q1025 WS R05L NOSIG RMK A3029

Emergency/Guard: 121.500
Taipei Approach: 125.100
Taipei Approach: 125.600
Taipei Approach: 128.500

RCTP Tower
Taipei, Taiwan

Feed Status: DOWN
Offline since: 2018-12-13 21:11:03 UTC

RCTP 132119Z 06021KT 7000 -RA FEW006 BKN008 BKN015 17/16 Q1025 WS R05L NOSIG RMK A3029

Taipei Tower: 118.700

RJAA Approach (Archives)
Tokyo, Japan

Feed Status: UP
Listen in your browser - HTML5 player(in browser, HTML5)
Listen right in your browser(in browser, requires Flash)
Click here to listen with your own player(launches your MP3 player)

RJAA 132100Z 24004KT 9999 FEW015 01/00 Q1017 BECMG 32006KT RMK 1CU015 A3005

RJAA Flight Activity (Flightaware)

Listeners: 7 out of 1303 total

Tokyo Approach: 124.400
Tokyo Approach: 127.700

RJAA Clearance Delivery (Archives)
Tokyo, Japan

Feed Status: UP
Listen in your browser - HTML5 player(in browser, HTML5)
Listen right in your browser(in browser, requires Flash)
Click here to listen with your own player(launches your MP3 player)

RJAA 132100Z 24004KT 9999 FEW015 01/00 Q1017 BECMG 32006KT RMK 1CU015 A3005

RJAA Flight Activity (Flightaware)

Listeners: 0 out of 1303 total

Narita Clearance Delivery (Asia/Pacific): 121.650
Narita Clearance Delivery (US/Europe): 121.900

RJAA Clearance Delivery #1 (Archives)
Tokyo, Japan

Feed Status: UP
Listen in your browser - HTML5 player(in browser, HTML5)
Listen right in your browser(in browser, requires Flash)
Click here to listen with your own player(launches your MP3 player)

RJAA 132100Z 24004KT 9999 FEW015 01/00 Q1017 BECMG 32006KT RMK 1CU015 A3005

RJAA Flight Activity (Flightaware)

Listeners: 0 out of 1303 total

Narita Clearance Delivery (Asia/Pacific): 121.650

RJAA Clearance Delivery #2 (Archives)
Tokyo, Japan

Feed Status: UP
Listen in your browser - HTML5 player(in browser, HTML5)
Listen right in your browser(in browser, requires Flash)
Click here to listen with your own player(launches your MP3 player)

RJAA 132100Z 24004KT 9999 FEW015 01/00 Q1017 BECMG 32006KT RMK 1CU015 A3005

RJAA Flight Activity (Flightaware)

Listeners: 0 out of 1303 total

Narita Clearance Delivery (US/Europe): 121.900

RJAA Company Channels (Archives)
Tokyo, Japan

Feed Status: UP
Listen in your browser - HTML5 player(in browser, HTML5)
Listen right in your browser(in browser, requires Flash)
Click here to listen with your own player(launches your MP3 player)

RJAA 132100Z 24004KT 9999 FEW015 01/00 Q1017 BECMG 32006KT RMK 1CU015 A3005

RJAA Flight Activity (Flightaware)

Listeners: 0 out of 1303 total

Ops: 130.450
Ops: 130.550
Ops: 130.900
Ops: 131.025
Ops: 131.100
Ops: 131.200
Ops: 131.700
Ops: 131.750

RJAA Departure (Archives)
Tokyo, Japan

Feed Status: UP
Listen in your browser - HTML5 player(in browser, HTML5)
Listen right in your browser(in browser, requires Flash)
Click here to listen with your own player(launches your MP3 player)

RJAA 132100Z 24004KT 9999 FEW015 01/00 Q1017 BECMG 32006KT RMK 1CU015 A3005

RJAA Flight Activity (Flightaware)

Listeners: 0 out of 1303 total

Tokyo Departure: 119.600
Tokyo Departure: 124.200

RJAA Departure #1 (Archives)
Tokyo, Japan

Feed Status: UP
Listen in your browser - HTML5 player(in browser, HTML5)
Listen right in your browser(in browser, requires Flash)
Click here to listen with your own player(launches your MP3 player)

RJAA 132100Z 24004KT 9999 FEW015 01/00 Q1017 BECMG 32006KT RMK 1CU015 A3005

RJAA Flight Activity (Flightaware)

Listeners: 0 out of 1303 total

Tokyo Departure: 124.200

RJAA Departure #2 (Archives)
Tokyo, Japan

Feed Status: UP
Listen in your browser - HTML5 player(in browser, HTML5)
Listen right in your browser(in browser, requires Flash)
Click here to listen with your own player(launches your MP3 player)

RJAA 132100Z 24004KT 9999 FEW015 01/00 Q1017 BECMG 32006KT RMK 1CU015 A3005

RJAA Flight Activity (Flightaware)

Listeners: 0 out of 1303 total

Tokyo Departure: 119.600

RJAA Emergency/Guard (Archives)
Tokyo, Japan

Feed Status: UP
Listen in your browser - HTML5 player(in browser, HTML5)
Listen right in your browser(in browser, requires Flash)
Click here to listen with your own player(launches your MP3 player)

RJAA 132100Z 24004KT 9999 FEW015 01/00 Q1017 BECMG 32006KT RMK 1CU015 A3005

RJAA Flight Activity (Flightaware)

Listeners: 0 out of 1303 total

Emergency/Guard: 121.500

RJAA Ground #1 (Archives)
Tokyo, Japan

Feed Status: UP
Listen in your browser - HTML5 player(in browser, HTML5)
Listen right in your browser(in browser, requires Flash)
Click here to listen with your own player(launches your MP3 player)

RJAA 132100Z 24004KT 9999 FEW015 01/00 Q1017 BECMG 32006KT RMK 1CU015 A3005

RJAA Flight Activity (Flightaware)

Listeners: 0 out of 1303 total

Narita Ground: 121.850

RJAA Ground #2 (Archives)
Tokyo, Japan

Feed Status: UP
Listen in your browser - HTML5 player(in browser, HTML5)
Listen right in your browser(in browser, requires Flash)
Click here to listen with your own player(launches your MP3 player)

RJAA 132100Z 24004KT 9999 FEW015 01/00 Q1017 BECMG 32006KT RMK 1CU015 A3005

RJAA Flight Activity (Flightaware)

Listeners: 0 out of 1303 total

Narita Ground: 121.950

RJAA Radar (Archives)
Tokyo, Japan

Feed Status: UP
Listen in your browser - HTML5 player(in browser, HTML5)
Listen right in your browser(in browser, requires Flash)
Click here to listen with your own player(launches your MP3 player)

RJAA 132100Z 24004KT 9999 FEW015 01/00 Q1017 BECMG 32006KT RMK 1CU015 A3005

RJAA Flight Activity (Flightaware)

Listeners: 0 out of 1303 total

Tokyo Radar: 120.200

RJAA Ramp #1 (Archives)
Tokyo, Japan

Feed Status: UP
Listen in your browser - HTML5 player(in browser, HTML5)
Listen right in your browser(in browser, requires Flash)
Click here to listen with your own player(launches your MP3 player)

RJAA 132100Z 24004KT 9999 FEW015 01/00 Q1017 BECMG 32006KT RMK 1CU015 A3005

RJAA Flight Activity (Flightaware)

Listeners: 0 out of 1303 total

Narita Ramp: 121.600

RJAA Ramp #2 (Archives)
Tokyo, Japan

Feed Status: UP
Listen in your browser - HTML5 player(in browser, HTML5)
Listen right in your browser(in browser, requires Flash)
Click here to listen with your own player(launches your MP3 player)

RJAA 132100Z 24004KT 9999 FEW015 01/00 Q1017 BECMG 32006KT RMK 1CU015 A3005

RJAA Flight Activity (Flightaware)

Listeners: 0 out of 1303 total

Narita Ramp: 121.750

RJAA TCA (Archives)
Tokyo, Japan

Feed Status: UP
Listen in your browser - HTML5 player(in browser, HTML5)
Listen right in your browser(in browser, requires Flash)
Click here to listen with your own player(launches your MP3 player)

RJAA 132100Z 24004KT 9999 FEW015 01/00 Q1017 BECMG 32006KT RMK 1CU015 A3005

RJAA Flight Activity (Flightaware)

Listeners: 0 out of 1303 total

Tokyo TCA (Terminal Control Area): 119.450

RJAA Tokyo Control (Archives)
Tokyo, Japan

Feed Status: UP
Listen in your browser - HTML5 player(in browser, HTML5)
Listen right in your browser(in browser, requires Flash)
Click here to listen with your own player(launches your MP3 player)

RJAA 132100Z 24004KT 9999 FEW015 01/00 Q1017 BECMG 32006KT RMK 1CU015 A3005

RJAA Flight Activity (Flightaware)

Listeners: 1 out of 1303 total

Tokyo Control: 125.900

RJAA Tower #1 (Archives)
Tokyo, Japan

Feed Status: UP
Listen in your browser - HTML5 player(in browser, HTML5)
Listen right in your browser(in browser, requires Flash)
Click here to listen with your own player(launches your MP3 player)

RJAA 132100Z 24004KT 9999 FEW015 01/00 Q1017 BECMG 32006KT RMK 1CU015 A3005

RJAA Flight Activity (Flightaware)

Listeners: 2 out of 1303 total

Narita Tower (Rwy 16R/34L): 118.200

RJAA Tower #2 (Archives)
Tokyo, Japan

Feed Status: UP
Listen in your browser - HTML5 player(in browser, HTML5)
Listen right in your browser(in browser, requires Flash)
Click here to listen with your own player(launches your MP3 player)

RJAA 132100Z 24004KT 9999 FEW015 01/00 Q1017 BECMG 32006KT RMK 1CU015 A3005

RJAA Flight Activity (Flightaware)

Listeners: 3 out of 1303 total

Narita Tower (Rwy 16L/34R): 118.350

RJOO Tower (Archives)
Osaka, Japan

Feed Status: UP
Listen in your browser - HTML5 player(in browser, HTML5)
Listen right in your browser(in browser, requires Flash)
Click here to listen with your own player(launches your MP3 player)

RJOO 132100Z VRB02KT 9999 FEW025 SCT070 04/01 Q1025 RMK 1CU025 3AC070 A3028

RJOO Flight Activity (Flightaware)

Listeners: 1 out of 1303 total

Osaka Tower: 118.100

RJSF RDO (Archives)
Sukagawa, Japan

Feed Status: UP
Listen in your browser - HTML5 player(in browser, HTML5)
Listen right in your browser(in browser, requires Flash)
Click here to listen with your own player(launches your MP3 player)

RJSF 131100Z 13004KT 9999 FEW015 BKN070 M02/M04 Q1018

RJSF Flight Activity (Flightaware)

Listeners: 0 out of 1303 total

Fukushima Radio: 118.050

RJTT App/Dep (Archives)
Tokyo, Japan

Feed Status: UP
Listen in your browser - HTML5 player(in browser, HTML5)
Listen right in your browser(in browser, requires Flash)
Click here to listen with your own player(launches your MP3 player)

RJTT 132100Z 30008KT 260V340 9999 FEW020 06/M01 Q1018 NOSIG

RJTT Flight Activity (Flightaware)

Listeners: 17 out of 1303 total

Tokyo Approach: 119.100
Tokyo Approach: 119.400
Tokyo Departure: 120.800
Tokyo Departure: 126.000

RJTT Approach (Archives)
Tokyo, Japan

Feed Status: UP
Listen in your browser - HTML5 player(in browser, HTML5)
Listen right in your browser(in browser, requires Flash)
Click here to listen with your own player(launches your MP3 player)

RJTT 132100Z 30008KT 260V340 9999 FEW020 06/M01 Q1018 NOSIG

RJTT Flight Activity (Flightaware)

Listeners: 3 out of 1303 total

Tokyo Approach: 119.100
Tokyo Approach: 119.400

RJTT ATIS (Archives)
Tokyo, Japan

Feed Status: UP
Listen in your browser - HTML5 player(in browser, HTML5)
Listen right in your browser(in browser, requires Flash)
Click here to listen with your own player(launches your MP3 player)

RJTT 132100Z 30008KT 260V340 9999 FEW020 06/M01 Q1018 NOSIG

RJTT Flight Activity (Flightaware)

Listeners: 2 out of 1303 total

Tokyo ATIS: 128.800

RJTT Company Channels (Archives)
Tokyo, Japan

Feed Status: UP
Listen in your browser - HTML5 player(in browser, HTML5)
Listen right in your browser(in browser, requires Flash)
Click here to listen with your own player(launches your MP3 player)

RJTT 132100Z 30008KT 260V340 9999 FEW020 06/M01 Q1018 NOSIG

RJTT Flight Activity (Flightaware)

Listeners: 8 out of 1303 total

Company TBD: 128.500
Company TBD: 131.850
Company TBD: 129.725
Company TBD: 129.700
Company TBD: 131.900
Company TBD: 129.850
Company TBD: 128.975
Company TBD: 123.675
Company TBD: 132.075

RJTT Del/Ground (Archives)
Tokyo, Japan

Feed Status: UP
Listen in your browser - HTML5 player(in browser, HTML5)
Listen right in your browser(in browser, requires Flash)
Click here to listen with your own player(launches your MP3 player)

RJTT 132100Z 30008KT 260V340 9999 FEW020 06/M01 Q1018 NOSIG

RJTT Flight Activity (Flightaware)

Listeners: 1 out of 1303 total

Tokyo Clearance Delivery: 121.825
Tokyo Ground: 121.700
Tokyo Ground: 118.225
Tokyo Ground: 121.625
Tokyo Ground: 121.975

RJTT Del/Twr/TCA/Gnd (Archives)
Tokyo, Japan

Feed Status: UP
Listen in your browser - HTML5 player(in browser, HTML5)
Listen right in your browser(in browser, requires Flash)
Click here to listen with your own player(launches your MP3 player)

RJTT 132100Z 30008KT 260V340 9999 FEW020 06/M01 Q1018 NOSIG

RJTT Flight Activity (Flightaware)

Listeners: 8 out of 1303 total

Tokyo Clearance Delivery: 121.825
Tokyo Ground: 121.975
Tokyo Ground: 121.625
Tokyo Ground: 121.700
Tokyo Ground: 118.225
Tokyo TCA: 124.750
Tokyo Tower: 118.100
Tokyo Tower: 118.575
Tokyo Tower: 118.725
Tokyo Tower: 124.350

RJTT Departure (Archives)
Tokyo, Japan

Feed Status: UP
Listen in your browser - HTML5 player(in browser, HTML5)
Listen right in your browser(in browser, requires Flash)
Click here to listen with your own player(launches your MP3 player)

RJTT 132100Z 30008KT 260V340 9999 FEW020 06/M01 Q1018 NOSIG

RJTT Flight Activity (Flightaware)

Listeners: 1 out of 1303 total

Tokyo Departure: 120.800
Tokyo Departure: 126.000

RJTT Tokyo Control (Archives)
Tokyo, Japan

Feed Status: UP
Listen in your browser - HTML5 player(in browser, HTML5)
Listen right in your browser(in browser, requires Flash)
Click here to listen with your own player(launches your MP3 player)

RJTT 132100Z 30008KT 260V340 9999 FEW020 06/M01 Q1018 NOSIG

RJTT Flight Activity (Flightaware)

Listeners: 16 out of 1303 total

Tokyo Control: 133.700
Tokyo Control: 125.900
Tokyo Control: 120.500

RJTT Twr/TCA (Archives)
Tokyo, Japan

Feed Status: UP
Listen in your browser - HTML5 player(in browser, HTML5)
Listen right in your browser(in browser, requires Flash)
Click here to listen with your own player(launches your MP3 player)

RJTT 132100Z 30008KT 260V340 9999 FEW020 06/M01 Q1018 NOSIG

RJTT Flight Activity (Flightaware)

Listeners: 3 out of 1303 total

Tokyo TCA: 124.750
Tokyo Tower: 118.100
Tokyo Tower: 118.575
Tokyo Tower: 118.725
Tokyo Tower: 124.350

RJTY Approach (Archives)
Tokyo, Japan

Feed Status: UP
Listen in your browser - HTML5 player(in browser, HTML5)
Listen right in your browser(in browser, requires Flash)
Click here to listen with your own player(launches your MP3 player)

RJTY 132056Z AUTO 35012KT 10SM CLR 01/M02 A3012 RMK AO2 SLP211 T00081018 53017 FZRANO $

RJTY Flight Activity (Flightaware)

Listeners: 2 out of 1303 total

Yokota Approach: 118.300
Yokota APproach: 123.800
Yokota Approach: 120.700

RJTY Ground (Archives)
Tokyo, Japan

Feed Status: UP
Listen in your browser - HTML5 player(in browser, HTML5)
Listen right in your browser(in browser, requires Flash)
Click here to listen with your own player(launches your MP3 player)

RJTY 132056Z AUTO 35012KT 10SM CLR 01/M02 A3012 RMK AO2 SLP211 T00081018 53017 FZRANO $

RJTY Flight Activity (Flightaware)

Listeners: 0 out of 1303 total

Yokota Ground: 133.200

RJTY Ground/Tower (Archives)
Tokyo, Japan

Feed Status: UP
Listen in your browser - HTML5 player(in browser, HTML5)
Listen right in your browser(in browser, requires Flash)
Click here to listen with your own player(launches your MP3 player)

RJTY 132056Z AUTO 35012KT 10SM CLR 01/M02 A3012 RMK AO2 SLP211 T00081018 53017 FZRANO $

RJTY Flight Activity (Flightaware)

Listeners: 0 out of 1303 total

Yokota Ground: 133.200
Yokota Tower: 134.300

RJTY Tower (Archives)
Tokyo, Japan

Feed Status: UP
Listen in your browser - HTML5 player(in browser, HTML5)
Listen right in your browser(in browser, requires Flash)
Click here to listen with your own player(launches your MP3 player)

RJTY 132056Z AUTO 35012KT 10SM CLR 01/M02 A3012 RMK AO2 SLP211 T00081018 53017 FZRANO $

RJTY Flight Activity (Flightaware)

Listeners: 0 out of 1303 total

Yokota Tower: 134.300

RKSG Gnd/Twr/App (Archives)
Pyeongtaek, Korea, Republic of

Feed Status: UP
Listen in your browser - HTML5 player(in browser, HTML5)
Listen right in your browser(in browser, requires Flash)
Click here to listen with your own player(launches your MP3 player)

RKSG 132056Z 00000KT 7SM CLR M08/M08 A3055 RMK AO2A SLP350 T10791083 55000 $

RKSG Flight Activity (Flightaware)

Listeners: 0 out of 1303 total

Desiderio Final: 255.800
Desiderio GCA: 226.800
Desiderio GCA: 127.000
Desiderio Ground (Camp Humphreys A-511 AAF): 119.500
Desiderio Ground UHF: 229.700
Desiderio Ops: 294.100
Desiderio Tower (Camp Humphreys A-511 AAF): 122.500
Desiderio Tower UHF: 257.800

RKRR Incheon Control (Archives)
Incheon, Korea, Republic of

Feed Status: UP
Listen in your browser - HTML5 player(in browser, HTML5)
Listen right in your browser(in browser, requires Flash)
Click here to listen with your own player(launches your MP3 player)

RKSI 132100Z 02006KT 9999 FEW030 M06/M15 Q1035 NOSIG

RKSI Flight Activity (Flightaware)

Listeners: 4 out of 1303 total

Incheon Control North Sector (Primary): 128.700
Incheon Control North Sector (Secondary): 132.800
Incheon Control Northwest Sector (Primary): 126.175
Incheon Control Northwest Sector (Secondary): 123.725

RKSO Gnd/Twr/App (Archives)
Pyeongtaek, Korea, Republic of

Feed Status: UP
Listen in your browser - HTML5 player(in browser, HTML5)
Listen right in your browser(in browser, requires Flash)
Click here to listen with your own player(launches your MP3 player)

RKSO 132058Z 06003KT 7SM CLR M10/M11 A3055 RMK AO2A SLP350 T10961112 55000

RKSO Flight Activity (Flightaware)

Listeners: 2 out of 1303 total

25 FS Ops: 229.000
36FS Ops: 371.300
Osan Air Base Approach/Departure: 127.900
Osan Air Base Approach/Departure: 133.650
Osan Air Base Ground: 132.450
Osan Air Base Tower: 122.100
Osan App/Dep UHF: 306.600
Osan App/Dep UHF: 234.300
Osan App/Dep UHF (possibly inactive): 306.300
Osan App/Dep UHF (possibly inactive): 363.100
Osan Ground UHF: 253.700
Osan SAR: 282.800
Osan SAR: 381.000
Osan SOF: 299.800
Osan Tower UHF: 308.800
Stallion Ops: 276.200

RPLL Approach/Departure #1 (Archives)
Manila, Philippines

Feed Status: UP
Listen in your browser - HTML5 player(in browser, HTML5)
Listen right in your browser(in browser, requires Flash)
Click here to listen with your own player(launches your MP3 player)

RPLL 132100Z 33006KT 310V010 9000 SCT023 OVC090 25/25 Q1014 RESHRA NOSIG RMK A2994

RPLL Flight Activity (Flightaware)

Listeners: 1 out of 1303 total

Manila Approach/Departure: 121.100

RPLL Approach/Departure #2 (Archives)
Manila, Philippines

Feed Status: UP
Listen in your browser - HTML5 player(in browser, HTML5)
Listen right in your browser(in browser, requires Flash)
Click here to listen with your own player(launches your MP3 player)

RPLL 132100Z 33006KT 310V010 9000 SCT023 OVC090 25/25 Q1014 RESHRA NOSIG RMK A2994

RPLL Flight Activity (Flightaware)

Listeners: 0 out of 1303 total

Manila Approach/Departure: 119.700

RPLL ATIS (Archives)
Manila, Philippines

Feed Status: UP
Listen in your browser - HTML5 player(in browser, HTML5)
Listen right in your browser(in browser, requires Flash)
Click here to listen with your own player(launches your MP3 player)

RPLL 132100Z 33006KT 310V010 9000 SCT023 OVC090 25/25 Q1014 RESHRA NOSIG RMK A2994

RPLL Flight Activity (Flightaware)

Listeners: 0 out of 1303 total

Manila ATIS: 126.400

RPLL Clearance Delivery (Archives)
Manila, Philippines

Feed Status: UP
Listen in your browser - HTML5 player(in browser, HTML5)
Listen right in your browser(in browser, requires Flash)
Click here to listen with your own player(launches your MP3 player)

RPLL 132100Z 33006KT 310V010 9000 SCT023 OVC090 25/25 Q1014 RESHRA NOSIG RMK A2994

RPLL Flight Activity (Flightaware)

Listeners: 0 out of 1303 total

Manila Clearance Delivery (Primary): 125.100
Manila Clearance Delivery (Secondary): 125.500

RPLL Ground (Archives)
Manila, Philippines

Feed Status: UP
Listen in your browser - HTML5 player(in browser, HTML5)
Listen right in your browser(in browser, requires Flash)
Click here to listen with your own player(launches your MP3 player)

RPLL 132100Z 33006KT 310V010 9000 SCT023 OVC090 25/25 Q1014 RESHRA NOSIG RMK A2994

RPLL Flight Activity (Flightaware)

Listeners: 0 out of 1303 total

Manila Ground: 121.800

RPLL Ramp/Taxi (Archives)
Manila, Philippines

Feed Status: UP
Listen in your browser - HTML5 player(in browser, HTML5)
Listen right in your browser(in browser, requires Flash)
Click here to listen with your own player(launches your MP3 player)

RPLL 132100Z 33006KT 310V010 9000 SCT023 OVC090 25/25 Q1014 RESHRA NOSIG RMK A2994

RPLL Flight Activity (Flightaware)

Listeners: 0 out of 1303 total

Manila Ramp/Taxi: 121.350
Manila Ramp/Taxi: 121.700

RPLL Tower (Archives)
Manila, Philippines

Feed Status: UP
Listen in your browser - HTML5 player(in browser, HTML5)
Listen right in your browser(in browser, requires Flash)
Click here to listen with your own player(launches your MP3 player)

RPLL 132100Z 33006KT 310V010 9000 SCT023 OVC090 25/25 Q1014 RESHRA NOSIG RMK A2994

RPLL Flight Activity (Flightaware)

Listeners: 2 out of 1303 total

Manila Tower: 118.100

RPUN Tower
Pili-Luzon Island, Philippines

Feed Status: DOWN
Offline since: 2017-10-02 10:34:03 UTC

METAR NOT AVAILABLE

Naga Tower: 122.100

HF CWP/SEA (Archives)
Pyeongtaek, Korea, Republic of

Feed Status: UP
Listen in your browser - HTML5 player(in browser, HTML5)
Listen right in your browser(in browser, requires Flash)
Click here to listen with your own player(launches your MP3 player)


Listeners: 0 out of 1303 total

CWP 1 (Tokyo): 11.384
CWP 1/2 (Tokyo): 13.300
CWP-1/2 (San Francisco): 17.904
CWP-1/2 (Tokyo/Manila): 8.903
CWP-1/2 (Tokyo/San Francisco): 21.985
SEA-2 (Manila): 8.942

Receiver location: Seoul, Korea

UAAA Approach (Archives)
Almaty, Kazakhstan

Feed Status: UP
Listen in your browser - HTML5 player(in browser, HTML5)
Listen right in your browser(in browser, requires Flash)
Click here to listen with your own player(launches your MP3 player)

UAAA 132100Z 17001MPS 0200 R23R/0800N R23L/0750 FZFG VV001 M04/M05 Q1026 R88/91//50 NOSIG RMK QBB050

UAAA Flight Activity (Flightaware)

Listeners: 0 out of 1303 total

Almaty Approach: 124.800

UAAA Tower (Archives)
Almaty, Kazakhstan

Feed Status: UP
Listen in your browser - HTML5 player(in browser, HTML5)
Listen right in your browser(in browser, requires Flash)
Click here to listen with your own player(launches your MP3 player)

UAAA 132100Z 17001MPS 0200 R23R/0800N R23L/0750 FZFG VV001 M04/M05 Q1026 R88/91//50 NOSIG RMK QBB050

UAAA Flight Activity (Flightaware)

Listeners: 0 out of 1303 total

Almaty Tower: 119.400

UAAA Tower/Approach (Archives)
Almaty, Kazakhstan

Feed Status: UP
Listen in your browser - HTML5 player(in browser, HTML5)
Listen right in your browser(in browser, requires Flash)
Click here to listen with your own player(launches your MP3 player)

UAAA 132100Z 17001MPS 0200 R23R/0800N R23L/0750 FZFG VV001 M04/M05 Q1026 R88/91//50 NOSIG RMK QBB050

UAAA Flight Activity (Flightaware)

Listeners: 0 out of 1303 total

Almaty Approach: 124.800
Almaty Tower: 119.400

UNNT Gnd/Twr/App/Radar/Misc (Archives)
Novosibirsk, Russia

Feed Status: UP
Listen in your browser - HTML5 player(in browser, HTML5)
Listen right in your browser(in browser, requires Flash)
Click here to listen with your own player(launches your MP3 player)

UNNT 132100Z 20005MPS 1600 R25/P2000U SHSN DRSN OVC033CB M14/M16 Q1026 R25/450250 R16/453045 NOSIG RMK QFE759/1013

UNNT Flight Activity (Flightaware)

Listeners: 7 out of 1303 total

ACC_Novosibirsk-Control [5th military channel]: 128.500
ACC_Novosibirsk-Control [Southeast]: 126.100
ACC_Novosibirsk-Control [West]: 127.000
GPA_Kristallik [Severniy airfield]: 123.425
GPA_Sernisiy [Chkalovskiy airfield]: 124.750
GPA_Tomsk Information 1: 134.500
MIL_3 [3rd military channel]: 130.750
MIL_Larek [Shilovo facility]: 123.750
MIL_Maneken [Chkalovskiy airfield]: 123.550
MIL_Novosibirsk-1 [1st military channel]: 124.000
MIL_Noyabr' 31: 124.900
MIL_Trimaran: 124.500
SP_Air-to-Air: 123.450
SP_Air-to-Air 2: 123.400
SP_Common backup frequency: 129.000
SP_Emergency: 121.500
SP_Emergency 2: 123.100
SP_Flyoff: 124.375
SURF_Boarding: 163.425
SURF_Duty chart: 163.800
SURF_O&D Service: 163.325
SURF_Search & Rescue: 164.000
SURF_Security: 163.750
SURF_Tower surf: 163.650
SURF_Vehicles: 163.850
UNNT_Backup frequency: 127.100
UNNT_Novosibirsk-Approach: 127.500
UNNT_Novosibirsk-Ground: 121.700
UNNT_Novosibirsk-Radar: 122.000
UNNT_Novosibirsk-Tower: 118.500
UNNT_Novosibirsk-Transit: 131.600
UNNT_S7 FOCC: 131.925

UNOO Gnd/Tower/App (Archives)
Omsk, Russia

Feed Status: UP
Listen in your browser - HTML5 player(in browser, HTML5)
Listen right in your browser(in browser, requires Flash)
Click here to listen with your own player(launches your MP3 player)

UNOO 132100Z 24003MPS 9999 SCT033CB M12/M15 Q1025 R25/390145 NOSIG RMK QFE761

UNOO Flight Activity (Flightaware)

Listeners: 0 out of 1303 total

Aerodrom Kalachevo: 123.300
Aerodrom Marianovka: 123.000
Emergency/Guard: 121.500
Novosibirsk Control (Sector 7): 132.500
Novosibirsk Control (Sector 8): 132.900
Omsk Approach (FL060-FL265): 131.200
Omsk Apron: 118.800
Omsk Start/Radar: 119.000
Omsk Taxiing: 121.700
Omsk Transit: 131.700
UNOS/OMSK-Severny: 124.000

UNTT Gnd/Info/Radar/Control (Archives)
Tomsk, Russia

Feed Status: UP
Listen in your browser - HTML5 player(in browser, HTML5)
Listen right in your browser(in browser, requires Flash)
Click here to listen with your own player(launches your MP3 player)

UNTT Flight Activity (Flightaware)

Listeners: 0 out of 1303 total

Common Backup Frequency: 129.000
Emergency/Guard: 121.500
Novosibirsk Control (Sector 2): 126.100
Novosibirsk Control (Sector 3): 129.300
Novosibirsk Control (Sector 5): 132.300
Tomsk Ground: 118.800
Tomsk Information 1: 134.500
Tomsk Krug (Radar): 127.300
Tomsk Transit: 131.875
Troynik (Golovino): 122.400

USTR Gnd/Twr/App (Archives)
Tyumen, Russia

Feed Status: UP
Listen in your browser - HTML5 player(in browser, HTML5)
Listen right in your browser(in browser, requires Flash)
Click here to listen with your own player(launches your MP3 player)

USTR 132100Z 34005MPS 9999 OVC007 M05/M06 Q1027 R03/CLRD65 TEMPO 2000 BR OVC005 RMK QFE760/1014

USTR Flight Activity (Flightaware)

Listeners: 0 out of 1303 total

Tyumen Approach: 126.100
Tyumen Control: 132.600
Tyumen Control: 133.600
Tyumen Info (Regional): 133.400
Tyumen Start: 118.200
Tyumen Transit: 131.800

USUU Twr/App/Control (Archives)
Kurgan, Russia

Feed Status: UP
Listen in your browser - HTML5 player(in browser, HTML5)
Listen right in your browser(in browser, requires Flash)
Click here to listen with your own player(launches your MP3 player)

USUU Flight Activity (Flightaware)

Listeners: 0 out of 1303 total

Aerodromnaya 50: 164.100
Baggage Handling: 164.025
Kurgan Approach: 120.300
Kurgan Tower: 134.300
Kurgan/USUU Transit: 131.700
Kurtamysh: 122.450
Ural Control Sector 4: 119.700
USUL Tower: 129.600

VCBI Director
Colombo, Sri Lanka

Feed Status: DOWN
Offline since: 2018-12-13 17:07:02 UTC

VCBI 132110Z 04004KT 8000 NSC 23/21 Q1011 NOSIG

Colombo Director: 132.400

VHHH Approach 119.1 #1 (Archives)
Hong Kong, Hong Kong

Feed Status: UP
Listen in your browser - HTML5 player(in browser, HTML5)
Listen right in your browser(in browser, requires Flash)
Click here to listen with your own player(launches your MP3 player)

VHHH 132100Z 03004KT 9999 FEW024 14/08 Q1025 NOSIG

VHHH Flight Activity (Flightaware)

Listeners: 0 out of 1303 total

Hong Kong Approach: 119.100

VHHH Approach 119.1 #2 (Archives)
Hong Kong, Hong Kong

Feed Status: UP
Listen in your browser - HTML5 player(in browser, HTML5)
Listen right in your browser(in browser, requires Flash)
Click here to listen with your own player(launches your MP3 player)

VHHH 132100Z 03004KT 9999 FEW024 14/08 Q1025 NOSIG

VHHH Flight Activity (Flightaware)

Listeners: 0 out of 1303 total

Hong Kong Approach: 119.100

VHHH ATIS (Archives)
Hong Kong, Hong Kong

Feed Status: UP
Listen in your browser - HTML5 player(in browser, HTML5)
Listen right in your browser(in browser, requires Flash)
Click here to listen with your own player(launches your MP3 player)

VHHH 132100Z 03004KT 9999 FEW024 14/08 Q1025 NOSIG

VHHH Flight Activity (Flightaware)

Listeners: 0 out of 1303 total

Hong Kong Arrival ATIS: 128.200

VHHH Clearance Delivery (Archives)
Hong Kong, Hong Kong

Feed Status: UP
Listen in your browser - HTML5 player(in browser, HTML5)
Listen right in your browser(in browser, requires Flash)
Click here to listen with your own player(launches your MP3 player)

VHHH 132100Z 03004KT 9999 FEW024 14/08 Q1025 NOSIG

VHHH Flight Activity (Flightaware)

Listeners: 0 out of 1303 total

Hong Kong Clearance Delivery: 129.900

VHHH Departure (Primary) (Archives)
Hong Kong, Hong Kong

Feed Status: UP
Listen in your browser - HTML5 player(in browser, HTML5)
Listen right in your browser(in browser, requires Flash)
Click here to listen with your own player(launches your MP3 player)

VHHH 132100Z 03004KT 9999 FEW024 14/08 Q1025 NOSIG

VHHH Flight Activity (Flightaware)

Listeners: 1 out of 1303 total

Hong Kong Departure: 123.800

VHHH Director #1 (Archives)
Hong Kong, Hong Kong

Feed Status: UP
Listen in your browser - HTML5 player(in browser, HTML5)
Listen right in your browser(in browser, requires Flash)
Click here to listen with your own player(launches your MP3 player)

VHHH 132100Z 03004KT 9999 FEW024 14/08 Q1025 NOSIG

VHHH Flight Activity (Flightaware)

Listeners: 0 out of 1303 total

Hong Kong Director: 119.500

VHHH Director #2 (Archives)
Hong Kong, Hong Kong

Feed Status: UP
Listen in your browser - HTML5 player(in browser, HTML5)
Listen right in your browser(in browser, requires Flash)
Click here to listen with your own player(launches your MP3 player)

VHHH 132100Z 03004KT 9999 FEW024 14/08 Q1025 NOSIG

VHHH Flight Activity (Flightaware)

Listeners: 1 out of 1303 total

Hong Kong Director: 119.500

VHHH Ground (Archives)
Hong Kong, Hong Kong

Feed Status: UP
Listen in your browser - HTML5 player(in browser, HTML5)
Listen right in your browser(in browser, requires Flash)
Click here to listen with your own player(launches your MP3 player)

VHHH 132100Z 03004KT 9999 FEW024 14/08 Q1025 NOSIG

VHHH Flight Activity (Flightaware)

Listeners: 0 out of 1303 total

Hong Kong Ground (North): 121.600
Hong Kong Ground (South): 122.550

VHHH Ground (North) (Archives)
Hong Kong, Hong Kong

Feed Status: UP
Listen in your browser - HTML5 player(in browser, HTML5)
Listen right in your browser(in browser, requires Flash)
Click here to listen with your own player(launches your MP3 player)

VHHH 132100Z 03004KT 9999 FEW024 14/08 Q1025 NOSIG

VHHH Flight Activity (Flightaware)

Listeners: 0 out of 1303 total

Hong Kong Ground (North): 121.600

VHHH Ground (South) (Archives)
Hong Kong, Hong Kong

Feed Status: UP
Listen in your browser - HTML5 player(in browser, HTML5)
Listen right in your browser(in browser, requires Flash)
Click here to listen with your own player(launches your MP3 player)

VHHH 132100Z 03004KT 9999 FEW024 14/08 Q1025 NOSIG

VHHH Flight Activity (Flightaware)

Listeners: 0 out of 1303 total

Hong Kong Ground (South): 122.550

VHHH Hong Kong Radar
Hong Kong, Hong Kong

Feed Status: DOWN
Offline since: 2018-12-11 13:56:03 UTC

VHHH 132100Z 03004KT 9999 FEW024 14/08 Q1025 NOSIG

Hong Kong Radar: 123.950

VHHH Tower (Archives)
Hong Kong, Hong Kong

Feed Status: UP
Listen in your browser - HTML5 player(in browser, HTML5)
Listen right in your browser(in browser, requires Flash)
Click here to listen with your own player(launches your MP3 player)

VHHH 132100Z 03004KT 9999 FEW024 14/08 Q1025 NOSIG

VHHH Flight Activity (Flightaware)

Listeners: 1 out of 1303 total

Hong Kong Tower (North): 118.200
Hong Kong Tower (South): 118.400

VHHH Tower (North) (Archives)
Hong Kong, Hong Kong

Feed Status: UP
Listen in your browser - HTML5 player(in browser, HTML5)
Listen right in your browser(in browser, requires Flash)
Click here to listen with your own player(launches your MP3 player)

VHHH 132100Z 03004KT 9999 FEW024 14/08 Q1025 NOSIG

VHHH Flight Activity (Flightaware)

Listeners: 0 out of 1303 total

Hong Kong Tower (North): 118.200

VHHH Tower (South) (Archives)
Hong Kong, Hong Kong

Feed Status: UP
Listen in your browser - HTML5 player(in browser, HTML5)
Listen right in your browser(in browser, requires Flash)
Click here to listen with your own player(launches your MP3 player)

VHHH 132100Z 03004KT 9999 FEW024 14/08 Q1025 NOSIG

VHHH Flight Activity (Flightaware)

Listeners: 0 out of 1303 total

Hong Kong Tower (South): 118.400

VHHH Zone (Archives)
Hong Kong, Hong Kong

Feed Status: UP
Listen in your browser - HTML5 player(in browser, HTML5)
Listen right in your browser(in browser, requires Flash)
Click here to listen with your own player(launches your MP3 player)

VHHH 132100Z 03004KT 9999 FEW024 14/08 Q1025 NOSIG

VHHH Flight Activity (Flightaware)

Listeners: 0 out of 1303 total

Hong Kong Zone: 120.600

VNKT Twr/App/Control
Kathmandu, Nepal

Feed Status: DOWN
Offline since: 2018-03-13 04:51:02 UTC

VNKT 131150Z 26003KT 220V290 8000 FEW015 13/06 Q1021 NOSIG

Kathmandu Approach: 120.600
Kathmandu Control: 126.500
Kathmandu Tower: 118.100

NOTE: Airport closes from 19:00 UTC to 00:00 UTC

VTBS Approach (East) (Archives)
Bangkok, Thailand

Feed Status: UP
Listen in your browser - HTML5 player(in browser, HTML5)
Listen right in your browser(in browser, requires Flash)
Click here to listen with your own player(launches your MP3 player)

VTBS 132100Z 02007KT 9999 FEW030 23/18 Q1013 NOSIG

VTBS Flight Activity (Flightaware)

Listeners: 0 out of 1303 total

Bangkok Approach (East): 122.350

VTBS Approach (North) (Archives)
Bangkok, Thailand

Feed Status: UP
Listen in your browser - HTML5 player(in browser, HTML5)
Listen right in your browser(in browser, requires Flash)
Click here to listen with your own player(launches your MP3 player)

VTBS 132100Z 02007KT 9999 FEW030 23/18 Q1013 NOSIG

VTBS Flight Activity (Flightaware)

Listeners: 0 out of 1303 total

Bangkok Approach (North): 121.700

VTBS Approach 119.1 (Archives)
Bangkok, Thailand

Feed Status: UP
Listen in your browser - HTML5 player(in browser, HTML5)
Listen right in your browser(in browser, requires Flash)
Click here to listen with your own player(launches your MP3 player)

VTBS 132100Z 02007KT 9999 FEW030 23/18 Q1013 NOSIG

VTBS Flight Activity (Flightaware)

Listeners: 0 out of 1303 total

Bangkok Approach: 119.100

VTBS Approach 119.4 (Archives)
Bangkok, Thailand

Feed Status: UP
Listen in your browser - HTML5 player(in browser, HTML5)
Listen right in your browser(in browser, requires Flash)
Click here to listen with your own player(launches your MP3 player)

VTBS 132100Z 02007KT 9999 FEW030 23/18 Q1013 NOSIG

VTBS Flight Activity (Flightaware)

Listeners: 0 out of 1303 total

Bangkok Approach: 119.400

VTBS Approach 120.3 (Archives)
Bangkok, Thailand

Feed Status: UP
Listen in your browser - HTML5 player(in browser, HTML5)
Listen right in your browser(in browser, requires Flash)
Click here to listen with your own player(launches your MP3 player)

VTBS 132100Z 02007KT 9999 FEW030 23/18 Q1013 NOSIG

VTBS Flight Activity (Flightaware)

Listeners: 0 out of 1303 total

Bangkok Approach: 120.300

VTBS Approach/Arrival (Archives)
Bangkok, Thailand

Feed Status: UP
Listen in your browser - HTML5 player(in browser, HTML5)
Listen right in your browser(in browser, requires Flash)
Click here to listen with your own player(launches your MP3 player)

VTBS 132100Z 02007KT 9999 FEW030 23/18 Q1013 NOSIG

VTBS Flight Activity (Flightaware)

Listeners: 1 out of 1303 total

Bangkok Approach: 124.350
Bangkok Approach: 125.200
Bangkok Approach: 124.700
Bangkok Approach: 126.300
Bangkok Approach: 133.400
Bangkok Arrival (VTBD): 125.500

VTBS Arrival 121.1 (Archives)
Bangkok, Thailand

Feed Status: UP
Listen in your browser - HTML5 player(in browser, HTML5)
Listen right in your browser(in browser, requires Flash)
Click here to listen with your own player(launches your MP3 player)

VTBS 132100Z 02007KT 9999 FEW030 23/18 Q1013 NOSIG

VTBS Flight Activity (Flightaware)

Listeners: 0 out of 1303 total

Bangkok Arrival: 121.100

VTBS ATIS (Archives)
Bangkok, Thailand

Feed Status: UP
Listen in your browser - HTML5 player(in browser, HTML5)
Listen right in your browser(in browser, requires Flash)
Click here to listen with your own player(launches your MP3 player)

VTBS 132100Z 02007KT 9999 FEW030 23/18 Q1013 NOSIG

VTBS Flight Activity (Flightaware)

Listeners: 0 out of 1303 total

Bangkok D-ATIS: 133.600

VTBS Control (FIR) (Archives)
Bangkok, Thailand

Feed Status: UP
Listen in your browser - HTML5 player(in browser, HTML5)
Listen right in your browser(in browser, requires Flash)
Click here to listen with your own player(launches your MP3 player)

VTBS 132100Z 02007KT 9999 FEW030 23/18 Q1013 NOSIG

VTBS Flight Activity (Flightaware)

Listeners: 0 out of 1303 total

Bangkok FIR (Sector 3): 135.500

VTBS Departure (Archives)
Bangkok, Thailand

Feed Status: UP
Listen in your browser - HTML5 player(in browser, HTML5)
Listen right in your browser(in browser, requires Flash)
Click here to listen with your own player(launches your MP3 player)

VTBS 132100Z 02007KT 9999 FEW030 23/18 Q1013 NOSIG

VTBS Flight Activity (Flightaware)

Listeners: 0 out of 1303 total

Bangkok Departure: 119.250

VTBS Ground (East) (Archives)
Bangkok, Thailand

Feed Status: UP
Listen in your browser - HTML5 player(in browser, HTML5)
Listen right in your browser(in browser, requires Flash)
Click here to listen with your own player(launches your MP3 player)

VTBS 132100Z 02007KT 9999 FEW030 23/18 Q1013 NOSIG

VTBS Flight Activity (Flightaware)

Listeners: 0 out of 1303 total

Bangkok Ground (East): 121.650

VTBS Ground (Main) (Archives)
Bangkok, Thailand

Feed Status: UP
Listen in your browser - HTML5 player(in browser, HTML5)
Listen right in your browser(in browser, requires Flash)
Click here to listen with your own player(launches your MP3 player)

VTBS 132100Z 02007KT 9999 FEW030 23/18 Q1013 NOSIG

VTBS Flight Activity (Flightaware)

Listeners: 0 out of 1303 total

Bangkok Ground (Main): 121.750

VTBS Ground (West) (Archives)
Bangkok, Thailand

Feed Status: UP
Listen in your browser - HTML5 player(in browser, HTML5)
Listen right in your browser(in browser, requires Flash)
Click here to listen with your own player(launches your MP3 player)

VTBS 132100Z 02007KT 9999 FEW030 23/18 Q1013 NOSIG

VTBS Flight Activity (Flightaware)

Listeners: 0 out of 1303 total

Bangkok Ground (West): 121.950

VTBS Tower (Archives)
Bangkok, Thailand

Feed Status: UP
Listen in your browser - HTML5 player(in browser, HTML5)
Listen right in your browser(in browser, requires Flash)
Click here to listen with your own player(launches your MP3 player)

VTBS 132100Z 02007KT 9999 FEW030 23/18 Q1013 NOSIG

VTBS Flight Activity (Flightaware)

Listeners: 0 out of 1303 total

Bangkok Tower (Rwy 01L/19R): 119.000
Bangkok Tower (Rwy 01R/19L): 118.200

VTBS Tower (Rwy 01L/19R) (Archives)
Bangkok, Thailand

Feed Status: UP
Listen in your browser - HTML5 player(in browser, HTML5)
Listen right in your browser(in browser, requires Flash)
Click here to listen with your own player(launches your MP3 player)

VTBS 132100Z 02007KT 9999 FEW030 23/18 Q1013 NOSIG

VTBS Flight Activity (Flightaware)

Listeners: 0 out of 1303 total

Bangkok Tower (Rwy 01L/19R): 119.000

VTBS Tower (Rwy 01R/19L) (Archives)
Bangkok, Thailand

Feed Status: UP
Listen in your browser - HTML5 player(in browser, HTML5)
Listen right in your browser(in browser, requires Flash)
Click here to listen with your own player(launches your MP3 player)

VTBS 132100Z 02007KT 9999 FEW030 23/18 Q1013 NOSIG

VTBS Flight Activity (Flightaware)

Listeners: 0 out of 1303 total

Bangkok Tower (Rwy 01R/19L): 118.200

VTSS Approach (Archives)
Songkhla, Thailand

Feed Status: UP
Listen in your browser - HTML5 player(in browser, HTML5)
Listen right in your browser(in browser, requires Flash)
Click here to listen with your own player(launches your MP3 player)

VTSS 132100Z 28003KT 9999 FEW018CB SCT020 BKN100 25/24 Q1010 NOSIG

VTSS Flight Activity (Flightaware)

Listeners: 0 out of 1303 total

Hat Yai Approach: 126.700

WAHH Approach (Archives)
Yogyakarta, Indonesia

Feed Status: UP
Listen in your browser - HTML5 player(in browser, HTML5)
Listen right in your browser(in browser, requires Flash)
Click here to listen with your own player(launches your MP3 player)

METAR NOT AVAILABLE


Listeners: 0 out of 1303 total

Adisutjipto Approach: 123.400

WARR Gnd/Twr/Radar (Archives)
Surabaya, Indonesia

Feed Status: UP
Listen in your browser - HTML5 player(in browser, HTML5)
Listen right in your browser(in browser, requires Flash)
Click here to listen with your own player(launches your MP3 player)

WARR 132100Z VRB02KT 6000 SCT020 24/23 Q1009 NOSIG


Listeners: 0 out of 1303 total

Juanda Ground: 119.150
Juanda Tower: 118.300
Surabaya Director: 123.200
Surabaya East Control: 124.000
Surabaya West Control: 125.100

WBKK Gnd/Twr/App (Archives)
Kota Kinabalu, Malaysia

Feed Status: UP
Listen in your browser - HTML5 player(in browser, HTML5)
Listen right in your browser(in browser, requires Flash)
Click here to listen with your own player(launches your MP3 player)

WBKK 132100Z VRB02KT 9999 FEW014 SCT140 BKN270 26/24 Q1009 NOSIG


Listeners: 0 out of 1303 total

Kinabalu Director: 119.100
Kinabalu Ground: 121.600
Kinabalu Radar: 126.100
Kinabalu Radar: 132.450
Kinabalu Tower: 118.300

WMKB Radar (Archives)
Penang, Malaysia

Feed Status: UP
Listen in your browser - HTML5 player(in browser, HTML5)
Listen right in your browser(in browser, requires Flash)
Click here to listen with your own player(launches your MP3 player)

WMKB 132100Z VRB01KT 7000 FEW025 SCT140 BKN280 25/24 Q1009 NOSIG


Listeners: 1 out of 1303 total

Butterworth Radar: 125.800

WMKK Lumpur Control/Radar (East)
Sepang, Malaysia

Feed Status: DOWN
Offline since: 2018-10-27 07:24:02 UTC

WMKK 132100Z VRB02KT 9999 FEW017CB SCT140 BKN280 25/23 Q1010 NOSIG

Lumpur Contro/Radar (East): 134.250

WMKP Ground
Penang, Malaysia

Feed Status: DOWN
Offline since: 2018-11-28 11:16:03 UTC

WMKP 132100Z VRB03KT 9000 FEW017CB SCT140 BKN270 25/23 Q1009 NOSIG

Penang Ground: 121.600

ZBAA Approach
Beijing, China

Feed Status: DOWN
Offline since: 2018-11-20 01:46:03 UTC

ZBAA 132100Z 00000MPS CAVOK M11/M16 Q1038 NOSIG

Beijing Approach: 120.600

ZBAA Tower (Archives)
Beijing, China

Feed Status: UP
Listen in your browser - HTML5 player(in browser, HTML5)
Listen right in your browser(in browser, requires Flash)
Click here to listen with your own player(launches your MP3 player)

ZBAA 132100Z 00000MPS CAVOK M11/M16 Q1038 NOSIG


Listeners: 0 out of 1303 total

Beijing Tower (Rwy 01/19): 118.600

ZGKL App/Control (Archives)
Guilin, China

Feed Status: UP
Listen in your browser - HTML5 player(in browser, HTML5)
Listen right in your browser(in browser, requires Flash)
Click here to listen with your own player(launches your MP3 player)

ZGKL 132100Z 05002MPS 020V110 4500 BR FEW030 OVC036 07/03 Q1030 NOSIG


Listeners: 0 out of 1303 total

Guilin Approach: 120.850
Guilin Control: 133.600

ZYCY Tower
Chaoyang, China

Feed Status: DOWN
Offline since: 2018-11-19 03:14:04 UTC

ZYCY 140700Z 25002MPS CAVOK 29/16 Q1006 NOSIG

Chaoyang Tower: 118.350